DateTime,F1_A11,F1_S11,BsB_S11,BsG_S11,BsR_S11,BbsB_S11,BbsG_S11,BbsR_S11,BaB_A11,BaG_A11,BaR_A11,T_S11,U_S11,P_S11,T1_A11
2016-03-13T00:00:00Z,0000380,21000600,,,,,,,,,,24.8,00.0,0640.3,34.3
2016-03-13T00:01:00Z,0000380,21000600,,,,,,,,,,24.8,00.0,0640.3,34.3
2016-03-13T00:02:00Z,0000380,21000600,,,,,,,,,,24.8,00.0,0640.3,34.3
2016-03-13T00:03:00Z,0000380,61000600,,,,,,,,,,24.9,00.0,0640.3,34.3
2016-03-13T00:04:00Z,0000380,41000600,0001.03,0000.36,0000.41,-000.20,-000.10,-000.71,0000.01,0000.16,0000.11,25.0,00.0,0641.1,34.3
2016-03-13T00:05:00Z,0000380,01000600,0000.29,0000.64,0000.93,-000.43,-000.15,-000.03,0000.04,-000.15,-000.13,25.0,00.0,0641.1,34.3
2016-03-13T00:06:00Z,0000380,01000600,0000.66,0000.11,0000.55,0000.57,-000.47,-000.02,0000.14,0000.09,0000.10,25.0,00.0,0641.1,34.3
2016-03-13T00:07:00Z,0000380,01000600,0000.02,0001.03,0000.36,0000.13,-000.02,0000.11,0000.03,-000.05,-000.27,25.0,00.0,0641.1,34.3
2016-03-13T00:08:00Z,0000380,01000600,0000.54,0000.47,0000.44,0000.10,-000.02,-000.30,-000.20,-000.01,0000.25,25.0,00.0,0641.2,34.3
2016-03-13T00:09:00Z,0000380,01000600,0001.41,0000.39,0000.40,0000.62,0000.18,-000.28,0000.09,-000.05,0000.13,25.0,00.0,0641.1,34.3
2016-03-13T00:10:00Z,0000380,01000600,0001.55,0000.31,0000.27,-000.03,0000.59,0000.02,-000.09,-000.05,-000.27,25.0,00.0,0641.1,34.3
2016-03-13T00:11:00Z,0000380,01000600,-000.05,0000.17,0000.81,-000.30,0000.34,-000.07,0000.04,0000.14,0000.32,25.1,00.0,0641.2,34.3
2016-03-13T00:12:00Z,0000380,01000600,-000.20,0000.22,0000.41,-000.15,0000.08,-000.02,-000.01,0000.11,-000.37,25.1,00.0,0641.2,34.3
2016-03-13T00:13:00Z,0000380,01000600,-000.37,0000.63,0000.17,-000.59,0000.00,-000.13,0000.26,-000.04,0000.48,25.1,00.0,0641.2,34.3
2016-03-13T00:14:00Z,0000380,01000600,0000.47,0000.60,0000.32,-000.18,-000.16,0000.00,-000.23,0000.03,-000.22,25.1,00.0,0641.2,34.3
2016-03-13T00:15:00Z,0000380,01000600,0000.84,0000.44,0000.02,-000.56,0000.38,-000.43,0000.12,0000.05,0000.12,25.1,00.0,0641.2,34.3
2016-03-13T00:16:00Z,0000380,01000600,0000.11,0000.72,0000.61,0000.02,-000.03,-000.41,0000.01,0000.08,0000.10,25.1,00.0,0641.2,34.3
2016-03-13T00:17:00Z,0000380,01000600,0001.25,0000.65,0000.50,0000.33,-000.03,-000.20,0000.05,-000.01,-000.15,25.1,00.0,0641.2,34.3
2016-03-13T00:18:00Z,0000380,01000600,0000.99,0000.70,0000.80,-000.61,-000.25,-000.11,-000.04,0000.02,-000.01,25.1,00.0,0641.2,34.3
2016-03-13T00:19:00Z,0000380,01000600,0000.43,0000.53,0000.48,-000.08,0000.11,0000.39,0000.33,-000.08,0000.47,25.2,00.0,0641.2,34.3
2016-03-13T00:20:00Z,0000380,01000600,-000.04,0000.18,0000.23,0000.10,-000.05,-000.05,-000.22,0000.18,0000.06,25.2,00.0,0641.2,34.3
2016-03-13T00:21:00Z,0000380,01000600,-000.08,0000.16,0000.02,0000.39,0000.15,-000.15,0000.18,-000.08,-000.43,25.2,00.0,0641.2,34.3
2016-03-13T00:22:00Z,0000380,01000600,0000.54,0000.49,0000.20,-000.30,-000.05,-000.12,-000.05,0000.10,0000.15,25.2,00.0,0641.2,34.3
2016-03-13T00:23:00Z,0000380,01000600,0000.52,-000.08,0000.44,-000.43,0000.42,0000.13,-000.14,0000.02,0000.21,25.2,00.0,0641.3,34.3
2016-03-13T00:24:00Z,0000380,01000600,0000.79,0000.28,0000.00,-000.28,0000.26,-000.18,-000.13,-000.05,-000.31,25.2,00.0,0641.2,34.3
2016-03-13T00:25:00Z,0000380,01000600,0000.17,0000.33,0000.47,0000.30,0000.00,0000.25,0000.37,0000.05,0000.07,25.2,00.0,0641.3,34.3
2016-03-13T00:26:00Z,0000380,01000600,0001.16,0000.30,0000.64,0000.48,-000.20,0000.00,0000.00,0000.14,0000.00,25.2,00.0,0641.3,34.3
2016-03-13T00:27:00Z,0000380,01000600,0000.42,-000.24,0000.17,-000.16,0000.15,-000.61,-000.20,-000.26,0000.18,25.2,00.0,0641.2,34.3
2016-03-13T00:28:00Z,0000380,01000600,-000.02,-000.24,-000.10,0000.43,0000.08,0000.00,0000.20,0000.23,0000.21,25.2,00.0,0641.3,34.3
2016-03-13T00:29:00Z,0000380,01000600,0000.61,0000.13,0000.39,0000.39,0000.08,-000.44,-000.02,-000.10,-000.57,25.2,00.0,0641.3,34.3
2016-03-13T00:30:00Z,0000380,01000600,0000.42,0000.23,0000.85,0000.25,0000.07,0000.31,0000.14,0000.09,0000.48,25.2,00.0,0641.3,34.3
2016-03-13T00:31:00Z,0000380,01000600,0000.68,0000.72,0000.48,0000.10,-000.08,-000.26,-000.30,-000.02,-000.14,25.2,00.0,0641.3,34.3
2016-03-13T00:32:00Z,0000380,01000600,0001.07,0000.22,0000.34,0000.20,-000.02,-000.38,0000.26,0000.16,0000.21,25.3,00.0,0641.3,34.3
2016-03-13T00:33:00Z,0000380,01000600,0000.93,0000.34,-000.06,-000.16,0000.10,-000.05,-000.02,-000.12,-000.45,25.3,00.0,0641.3,34.3
2016-03-13T00:34:00Z,0000380,01000600,0000.70,-000.07,0000.52,0000.18,0000.28,-000.07,0000.10,-000.04,0000.38,25.3,00.0,0641.3,34.3
2016-03-13T00:35:00Z,0000380,01000600,0000.85,0001.43,0000.23,-000.30,0000.11,-000.30,0000.09,0000.20,-000.02,25.2,00.0,0641.3,34.3
2016-03-13T00:36:00Z,0000380,01000600,0000.82,-000.05,0000.11,-000.64,-000.07,-000.26,0000.03,-000.13,-000.04,25.3,00.0,0641.3,34.3
2016-03-13T00:37:00Z,0000380,01000600,0001.12,0000.14,0000.30,-000.10,-000.15,-000.49,-000.05,0000.26,0000.14,25.3,00.0,0641.3,34.3
2016-03-13T00:38:00Z,0000380,01000600,0000.88,0000.22,0000.68,-000.48,-000.26,-000.16,0000.14,-000.08,-000.20,25.3,00.0,0641.3,34.3
2016-03-13T00:39:00Z,0000380,01000600,0000.17,0001.11,0000.35,0000.36,0000.10,-000.36,-000.20,-000.13,0000.20,25.3,00.0,0641.3,34.3
2016-03-13T00:40:00Z,0000380,01000600,0000.33,0000.55,0000.09,-000.10,0000.34,-000.23,0000.17,0000.08,-000.19,25.3,00.0,0641.3,34.3
2016-03-13T00:41:00Z,0000380,01000600,0000.38,0000.12,0001.00,-000.07,0000.10,0000.16,-000.01,0000.03,0000.04,25.3,00.0,0641.3,34.3
2016-03-13T00:42:00Z,0000380,01000600,-000.37,0000.71,0000.27,0000.16,-000.07,0000.03,0000.11,0000.05,0000.17,25.2,00.0,0641.2,34.3
2016-03-13T00:43:00Z,0000380,01000600,0000.74,-000.02,0000.73,0000.10,-000.29,-000.21,-000.27,-000.01,-000.10,25.2,00.0,0641.3,34.3
2016-03-13T00:44:00Z,0000380,01000600,0000.70,-000.20,0000.61,0000.43,0000.26,0000.08,0000.10,0000.25,-000.18,25.2,00.0,0641.3,34.3
2016-03-13T00:45:00Z,0000380,01000600,0000.27,0000.12,0000.55,0000.03,-000.25,-000.23,0000.18,-000.11,0000.42,25.2,00.0,0641.3,34.3
2016-03-13T00:46:00Z,0000380,01000600,0001.11,0000.62,0000.58,-000.02,-000.34,-000.26,-000.01,0000.15,-000.07,25.2,00.0,0641.3,34.3
2016-03-13T00:47:00Z,0000380,01000600,0001.08,0000.89,0000.88,-000.25,-000.26,-000.05,0000.10,-000.05,0000.17,25.2,00.0,0641.3,34.3
2016-03-13T00:48:00Z,0000380,01000600,0000.54,0000.00,0000.04,-000.13,-000.16,-000.10,-000.08,-000.02,-000.29,25.2,00.0,0641.3,34.3
2016-03-13T00:49:00Z,0000380,01000600,0000.60,-000.02,0000.55,0001.38,0000.33,-000.08,0000.27,0000.17,0000.13,25.2,00.0,0641.3,34.3
2016-03-13T00:50:00Z,0000380,01000600,0000.44,0000.73,0000.60,0000.61,-000.29,0000.13,-000.15,0000.03,0000.45,25.2,00.0,0641.3,34.3
2016-03-13T00:51:00Z,0000380,01000600,0000.15,0000.32,0000.61,0000.41,0000.29,-000.26,0000.10,-000.23,-000.24,25.2,00.0,0641.3,34.3
2016-03-13T00:52:00Z,0000380,01000600,0001.92,0000.46,0000.16,-000.39,0000.25,-000.05,-000.32,-000.11,-000.47,25.2,00.0,0641.4,34.3
2016-03-13T00:53:00Z,0000380,01000600,-000.12,-000.76,0000.41,0000.02,0000.11,-000.34,0000.16,0000.38,0000.12,25.2,00.0,0641.4,34.3
2016-03-13T00:54:00Z,0000380,01000600,0000.97,0000.26,0000.47,-000.18,0000.03,-000.05,0000.12,-000.16,0000.22,25.2,00.0,0641.3,34.3
2016-03-13T00:55:00Z,0000380,01000600,0000.13,0000.21,-000.26,0000.28,0000.15,-000.44,0000.12,0000.27,0000.47,25.2,00.0,0641.4,34.3
2016-03-13T00:56:00Z,0000380,01000600,0000.50,0000.34,0000.19,-000.34,0000.11,-000.33,0000.01,-000.04,-000.52,25.3,00.0,0641.4,34.3
2016-03-13T00:57:00Z,0000380,41000600,,,,,,,,,,,,0641.5,34.3
2016-03-13T00:58:00Z,0000380,61000600,,,,,,,,,,25.2,00.0,0640.6,34.3
2016-03-13T00:59:00Z,0000380,21000600,,,,,,,,,,25.2,00.0,0640.6,34.3
2016-03-13T01:00:00Z,0000380,21000600,,,,,,,,,,25.2,00.0,0640.7,34.3
2016-03-13T01:01:00Z,0000380,21000600,,,,,,,,,,25.1,00.0,0640.7,34.3
2016-03-13T01:02:00Z,0000380,21000600,,,,,,,,,,25.0,00.0,0640.7,34.3
2016-03-13T01:03:00Z,0000380,61000600,,,,,,,,,,25.1,00.0,0640.7,34.3
2016-03-13T01:04:00Z,0000380,41000600,0000.27,0000.83,0000.80,-000.52,0000.31,0000.34,-000.22,0000.06,0000.05,25.1,00.0,0641.4,34.3
2016-03-13T01:05:00Z,0000380,01000600,0000.94,0000.80,0000.28,0000.79,0000.02,0000.34,0000.20,-000.10,-000.00,25.0,00.0,0641.4,34.3
2016-03-13T01:06:00Z,0000380,01000600,0001.20,0001.15,0000.40,0000.30,0000.62,0000.30,0000.04,0000.02,0000.09,25.0,00.0,0641.5,34.3
2016-03-13T01:07:00Z,0000380,01000600,0000.07,0000.32,0000.20,0000.30,0000.10,0000.13,-000.08,0000.06,-000.38,25.0,00.0,0641.4,34.3
2016-03-13T01:08:00Z,0000380,01000600,0000.87,0000.62,0000.79,0000.48,-000.15,0000.25,-000.09,-000.13,0000.15,25.0,00.0,0641.4,34.3
2016-03-13T01:09:00Z,0000380,01000600,0001.65,0001.14,0000.14,-000.33,0000.29,-000.07,-000.11,0000.01,-000.06,25.0,00.0,0641.5,34.3
2016-03-13T01:10:00Z,0000380,01000600,0001.63,0000.13,0000.18,0000.18,0000.21,0000.08,0000.11,0000.13,0000.49,25.0,00.0,0641.4,34.3
2016-03-13T01:11:00Z,0000380,01000600,0000.82,0000.15,0000.45,-000.54,-000.07,0000.15,0000.08,0000.04,-000.27,25.0,00.0,0641.4,34.3
2016-03-13T01:12:00Z,0000380,01000600,0000.63,0000.04,0000.45,0000.46,0000.33,0000.26,-000.02,0000.10,0000.08,25.1,00.0,0641.5,34.3
2016-03-13T01:13:00Z,0000380,01000600,0000.74,-000.13,0000.55,-000.36,0000.34,0000.41,0000.08,-000.21,-000.03,25.1,00.0,0641.4,34.3
2016-03-13T01:14:00Z,0000380,01000600,0000.47,0000.46,0000.79,-000.05,0000.47,0000.07,0000.13,0000.19,-000.16,25.1,00.0,0641.5,34.3
2016-03-13T01:15:00Z,0000380,01000600,0001.55,0000.52,0000.10,0000.52,0000.36,0000.31,0000.00,0000.20,0000.42,25.1,00.0,0641.5,34.3
2016-03-13T01:16:00Z,0000380,01000600,0000.73,0000.33,0000.00,0000.25,0000.11,-000.08,0000.01,-000.03,-000.26,25.1,00.0,0641.5,34.3
2016-03-13T01:17:00Z,0000380,01000600,0001.12,0000.49,0000.07,0000.21,0000.02,-000.30,-000.13,-000.19,0000.11,25.0,00.0,0641.5,34.3
2016-03-13T01:18:00Z,0000380,01000600,0000.90,0000.40,0000.10,-000.44,0000.16,0000.57,-000.02,0000.18,-000.06,25.0,00.0,0641.5,34.3
2016-03-13T01:19:00Z,0000380,01000600,0001.62,0000.44,0000.41,-000.20,0000.07,-000.10,0000.10,0000.00,0000.26,25.0,00.0,0641.5,34.3
2016-03-13T01:20:00Z,0000380,01000600,0000.86,0000.09,0000.98,-000.15,0000.07,0000.08,0000.22,0000.08,-000.02,25.0,00.0,0641.5,34.3
2016-03-13T01:21:00Z,0000380,01000600,0000.09,0000.64,0000.27,-000.18,0000.21,0000.05,-000.18,-000.03,0000.06,25.0,00.0,0641.6,34.3
2016-03-13T01:22:00Z,0000380,01000600,0000.12,0000.24,0000.33,-000.10,-000.70,-000.13,0000.16,0000.15,-000.16,25.0,00.0,0641.5,34.3
2016-03-13T01:23:00Z,0000380,01000600,0000.65,0000.11,0000.17,0000.11,0000.08,-000.13,-000.12,-000.17,0000.03,25.0,00.0,0641.5,34.3
2016-03-13T01:24:00Z,0000380,01000600,0000.19,0000.90,0000.49,0000.44,0000.24,0000.31,0000.22,0000.13,-000.01,25.0,00.0,0641.5,34.3
2016-03-13T01:25:00Z,0000380,01000600,0000.11,0001.17,0000.09,0000.56,0000.42,0000.10,-000.05,-000.15,0000.10,25.0,00.0,0641.5,34.3
2016-03-13T01:26:00Z,0000380,01000600,0001.07,0000.17,0000.53,-000.20,0000.02,0000.25,0000.20,0000.19,0000.17,25.0,00.0,0641.4,34.3
2016-03-13T01:27:00Z,0000380,01000600,0001.34,0000.35,0000.35,0000.20,-000.02,0000.23,-000.13,0000.08,0000.05,25.0,00.0,0641.5,34.3
2016-03-13T01:28:00Z,0000380,01000600,0000.45,0000.09,0000.55,0000.34,0000.10,0000.38,-000.02,0000.11,-000.17,25.0,00.0,0641.5,34.3
2016-03-13T01:29:00Z,0000380,01000600,0001.42,0000.11,0000.44,-000.43,0000.49,0000.23,0000.10,-000.07,0000.03,25.0,00.0,0641.4,34.3
2016-03-13T01:30:00Z,0000380,01000600,-000.26,0000.12,0000.96,0000.44,-000.02,0000.00,0000.05,0000.05,0000.06,25.0,00.0,0641.4,34.2
2016-03-13T01:31:00Z,0000380,01000600,0000.28,0000.18,0000.60,0000.05,-000.08,0000.28,0000.04,0000.10,0000.15,24.9,00.0,0641.5,34.2
2016-03-13T01:32:00Z,0000380,01000600,0000.98,0000.44,0000.46,-000.48,0000.24,0000.07,0000.07,0000.11,-000.30,24.8,00.0,0641.4,34.2
2016-03-13T01:33:00Z,0000380,01000600,0000.64,0001.12,0000.21,-000.11,-000.08,0000.07,-000.01,-000.15,0000.44,24.8,00.0,0641.4,34.2
2016-03-13T01:34:00Z,0000380,01000600,0000.68,0000.52,0000.13,0000.44,0000.34,0000.00,0000.13,0000.06,-000.23,24.8,00.0,0641.5,34.2
2016-03-13T01:35:00Z,0000380,01000600,0000.76,0000.11,0000.50,-000.44,0000.15,-000.08,-000.08,0000.02,0000.01,24.8,00.0,0641.5,34.2
2016-03-13T01:36:00Z,0000380,01000600,-000.02,-000.45,0000.13,0000.03,0000.59,-000.36,-000.06,0000.35,-000.01,24.7,00.0,0641.4,34.2
2016-03-13T01:37:00Z,0000380,01000600,0001.25,0000.49,0000.34,0000.00,0000.02,-000.03,-000.01,-000.49,0000.00,24.7,00.0,0641.4,34.2
2016-03-13T01:38:00Z,0000380,01000600,0000.43,0001.10,0000.44,-000.31,0000.11,0000.05,0000.33,0000.48,0000.42,24.8,00.0,0641.4,34.2
2016-03-13T01:39:00Z,0000380,01000600,0001.59,0000.70,0000.52,0000.29,-000.15,0000.02,-000.07,-000.15,-000.21,24.8,00.0,0641.4,34.2
2016-03-13T01:40:00Z,0000380,01000600,0001.82,0000.34,0000.53,0000.29,0000.03,0000.20,0000.16,-000.09,-000.03,24.8,00.0,0641.4,34.2
2016-03-13T01:41:00Z,0000380,01000600,0000.92,0000.82,0000.46,0000.25,0000.42,0000.03,0000.13,0000.20,0000.19,24.8,00.0,0641.4,34.2
2016-03-13T01:42:00Z,0000380,01000600,0000.23,0000.22,0000.60,0000.10,0000.33,0000.15,-000.18,0000.10,0000.14,24.8,00.0,0641.4,34.2
2016-03-13T01:43:00Z,0000380,01000600,0001.15,0000.54,0000.07,0000.82,0000.13,0000.18,0000.03,-000.21,-000.25,24.7,00.0,0641.4,34.2
2016-03-13T01:44:00Z,0000380,01000600,0000.74,-000.07,0000.35,0000.34,0000.26,0000.07,-000.05,0000.18,0000.17,24.7,00.0,0641.5,34.2
2016-03-13T01:45:00Z,0000380,01000600,0000.51,0000.51,0000.21,-000.02,0000.21,0000.31,-000.12,-000.13,-000.16,24.7,00.0,0641.4,34.2
2016-03-13T01:46:00Z,0000380,01000600,0000.56,0000.82,0000.31,0000.11,0000.49,0000.15,0000.19,0000.10,0000.23,24.6,00.0,0641.5,34.2
2016-03-13T01:47:00Z,0000380,01000600,0000.76,0000.69,-000.02,0000.33,-000.21,0000.25,0000.08,0000.09,0000.05,24.6,00.0,0641.5,34.2
2016-03-13T01:48:00Z,0000380,01000600,0000.46,-000.62,0000.37,0000.34,0000.37,0000.34,0000.15,-000.11,-000.17,24.5,00.0,0641.5,34.2
2016-03-13T01:49:00Z,0000380,01000600,0000.72,0000.33,-000.04,-000.13,-000.07,0000.31,-000.15,0000.23,0000.10,24.5,00.0,0641.5,34.2
2016-03-13T01:50:00Z,0000380,01000600,0000.91,0000.55,0000.34,0000.21,0000.03,0000.25,-000.14,-000.25,-000.01,24.5,00.0,0641.5,34.2
2016-03-13T01:51:00Z,0000380,01000600,0001.25,0000.98,0000.46,-000.03,0000.41,0000.46,0000.07,0000.07,-000.17,24.5,00.0,0641.5,34.2
2016-03-13T01:52:00Z,0000380,01000600,0000.80,0000.59,0000.66,-000.88,-000.11,0000.25,0000.16,0000.04,-000.11,24.5,00.0,0641.5,34.2
2016-03-13T01:53:00Z,0000380,01000600,-000.13,0000.08,0000.60,0000.10,0000.44,0000.56,-000.13,0000.16,0000.15,24.5,00.0,0641.5,34.2
2016-03-13T01:54:00Z,0000380,01000600,0001.05,0000.57,0000.48,-000.28,-000.10,0000.13,-000.02,-000.19,0000.27,24.5,00.0,0641.5,34.2
2016-03-13T01:55:00Z,0000380,01000600,0000.66,0000.75,0000.81,0000.29,0000.05,0000.26,-000.02,-000.17,-000.31,24.5,00.0,0641.5,34.2
2016-03-13T01:56:00Z,0000380,01000600,0001.82,0000.28,0000.39,0000.21,0000.21,0000.28,-000.02,0000.16,0000.05,24.6,00.0,0641.5,34.2
2016-03-13T01:57:00Z,0000380,41000600,,,,,,,,,,,,0641.4,34.2
2016-03-13T01:58:00Z,0000380,61000600,,,,,,,,,,24.5,00.0,0640.8,34.2
2016-03-13T01:59:00Z,0000380,21000600,,,,,,,,,,24.5,00.0,0640.7,34.2
2016-03-13T02:00:00Z,0000380,21000600,,,,,,,,,,24.5,00.0,0640.7,34.2
2016-03-13T02:01:00Z,0000380,21000600,,,,,,,,,,24.5,00.0,0640.7,34.2
2016-03-13T02:02:00Z,0000380,21000600,,,,,,,,,,24.5,00.0,0640.7,34.2
2016-03-13T02:03:00Z,0000380,61000600,,,,,,,,,,24.5,00.0,0640.8,34.2
2016-03-13T02:04:00Z,0000380,41000600,-000.47,0000.18,-000.09,0000.02,0000.05,-000.13,0000.20,0000.07,0000.50,24.5,00.0,0641.5,34.2
2016-03-13T02:05:00Z,0000380,01000600,-001.28,0000.08,0000.26,-000.15,0000.23,0000.16,0000.09,0000.17,-000.32,24.5,00.0,0641.6,34.2
2016-03-13T02:06:00Z,0000380,01000600,-000.44,0000.28,-000.05,0000.44,0000.00,0000.51,-000.01,-000.11,-000.11,24.5,00.0,0641.6,34.2
2016-03-13T02:07:00Z,0000380,01000600,-000.71,0000.17,0000.18,0000.26,0000.08,0000.34,-000.08,-000.18,-000.24,24.4,00.0,0641.6,34.2
2016-03-13T02:08:00Z,0000380,01000600,0000.09,0000.75,0000.16,0000.51,-000.07,0000.08,-000.03,-000.09,0000.42,24.5,00.0,0641.6,34.2
2016-03-13T02:09:00Z,0000380,01000600,0000.07,0000.92,-000.01,-000.03,-000.03,0000.13,-000.01,0000.12,0000.01,24.5,00.0,0641.6,34.2
2016-03-13T02:10:00Z,0000380,01000600,-000.14,0000.28,0000.34,-000.20,0000.70,0000.11,-000.10,0000.03,-000.50,24.5,00.0,0641.6,34.2
2016-03-13T02:11:00Z,0000380,01000600,0001.55,0001.38,0000.60,0000.49,-000.31,-000.02,0000.16,-000.07,0000.45,24.5,00.0,0641.6,34.2
2016-03-13T02:12:00Z,0000380,01000600,-000.80,0000.65,0000.65,0000.46,0000.20,0000.31,0000.28,0000.21,0000.03,24.5,00.0,0641.6,34.2
2016-03-13T02:13:00Z,0000380,01000600,0000.34,0000.36,0000.16,0000.08,-000.03,-000.26,0000.07,0000.24,0000.08,24.5,00.0,0641.6,34.2
2016-03-13T02:14:00Z,0000380,01000600,0001.18,0000.45,0000.14,0000.10,0000.16,0000.33,-000.01,-000.01,-000.06,24.5,00.0,0641.6,34.2
2016-03-13T02:15:00Z,0000380,01000600,-000.86,0000.63,0000.17,0000.33,0000.39,0000.34,0000.09,-000.10,-000.02,24.5,00.0,0641.6,34.2
2016-03-13T02:16:00Z,0000380,01000600,0000.03,0000.42,-000.08,-000.10,0000.13,0000.10,-000.04,0000.12,0000.37,24.5,00.0,0641.7,34.2
2016-03-13T02:17:00Z,0000380,01000600,-001.13,0000.95,0000.26,0000.33,0000.08,-000.07,0000.03,0000.11,0000.04,24.5,00.0,0641.7,34.2
2016-03-13T02:18:00Z,0000380,01000600,-000.94,-000.10,-000.02,-000.43,0000.15,0000.29,0000.09,0000.13,-000.28,24.4,00.0,0641.7,34.2
2016-03-13T02:19:00Z,0000380,01000600,-000.66,-000.11,-000.05,-000.08,0000.23,0000.41,-000.13,-000.04,0000.05,24.4,00.0,0641.7,34.2
2016-03-13T02:20:00Z,0000380,01000600,-000.65,0000.55,0000.25,0000.67,-000.34,0000.10,0000.12,-000.11,-000.13,24.3,00.0,0641.7,34.2
2016-03-13T02:21:00Z,0000380,01000600,-000.31,0000.19,0000.14,0000.87,0000.13,0000.29,-000.12,0000.08,0000.65,24.3,00.0,0641.7,34.2
2016-03-13T02:22:00Z,0000380,01000600,-000.56,0000.39,-000.10,0000.03,0000.02,0000.26,0000.07,-000.06,-000.48,24.3,00.0,0641.7,34.2
2016-03-13T02:23:00Z,0000380,01000600,0000.52,0001.03,0000.85,0000.23,0000.33,0000.23,-000.17,-000.13,0000.15,24.4,00.0,0641.7,34.2
2016-03-13T02:24:00Z,0000380,01000600,0000.31,0000.20,0000.25,0000.26,0000.13,0000.07,0000.48,0000.11,0000.08,24.4,00.0,0641.6,34.2
2016-03-13T02:25:00Z,0000380,01000600,-000.91,0000.60,-000.19,0000.18,0000.29,0000.20,-000.30,-000.07,-000.55,24.4,00.0,0641.7,34.2
2016-03-13T02:26:00Z,0000380,01000600,-000.10,0000.73,0000.44,0000.85,0000.52,0000.26,0000.20,0000.15,0000.35,24.5,00.0,0641.7,34.2
2016-03-13T02:27:00Z,0000380,01000600,0000.07,0000.82,0000.22,0000.08,-000.24,0000.41,0000.01,0000.04,0000.38,24.5,00.0,0641.7,34.2
2016-03-13T02:28:00Z,0000380,01000600,-000.69,0000.90,0000.39,0000.80,0000.07,-000.16,-000.04,0000.13,-000.23,24.5,00.0,0641.7,34.2
2016-03-13T02:29:00Z,0000380,01000600,0000.07,0000.26,-000.02,0000.00,-000.10,0000.39,-000.04,-000.12,-000.03,24.4,00.0,0641.7,34.2
2016-03-13T02:30:00Z,0000380,01000600,-000.34,0000.41,0000.49,-000.10,0000.34,0000.31,0000.24,0000.11,-000.04,24.4,00.0,0641.7,34.2
2016-03-13T02:31:00Z,0000380,01000600,-001.36,0000.66,0000.22,-000.08,0000.13,0000.28,0000.13,0000.08,0000.35,24.4,00.0,0641.7,34.2
2016-03-13T02:32:00Z,0000380,01000600,-000.02,0000.64,0000.00,0000.56,-000.07,-000.02,-000.01,0000.09,-000.21,24.3,00.0,0641.7,34.2
2016-03-13T02:33:00Z,0000380,01000600,-000.07,0000.38,0000.32,0000.44,-000.16,0000.46,-000.26,-000.11,0000.10,24.3,00.0,0641.8,34.2
2016-03-13T02:34:00Z,0000380,01000600,0000.00,0000.11,0000.46,0000.10,0000.44,0000.03,0000.13,0000.05,0000.05,24.3,00.0,0641.8,34.2
2016-03-13T02:35:00Z,0000380,01000600,0000.09,0000.79,0000.57,-000.02,0000.15,0000.10,-000.16,0000.06,0000.06,24.3,00.0,0641.8,34.2
2016-03-13T02:36:00Z,0000380,01000600,-000.38,0000.72,0000.59,0001.11,0000.05,0000.05,0000.33,0000.12,0000.20,24.3,00.0,0641.8,34.2
2016-03-13T02:37:00Z,0000380,01000600,0001.49,0000.57,-000.27,0000.77,-000.10,-000.15,0000.12,-000.16,-000.47,24.3,00.0,0641.7,34.2
2016-03-13T02:38:00Z,0000380,01000600,-001.24,0000.39,0000.94,0000.28,-000.33,0000.18,-000.19,0000.05,-000.06,24.3,00.0,0641.7,34.2
2016-03-13T02:39:00Z,0000380,01000600,-000.41,0000.39,0000.05,0000.43,0000.03,0000.25,0000.05,-000.18,0000.16,24.3,00.0,0641.7,34.2
2016-03-13T02:40:00Z,0000380,01000600,-000.28,0000.84,0000.43,0000.56,0000.16,0000.10,-000.14,0000.25,-000.07,24.4,00.0,0641.8,34.2
2016-03-13T02:41:00Z,0000380,01000600,0001.44,0001.19,0000.17,-000.23,-000.02,0000.02,0000.04,-000.30,-000.03,24.4,00.0,0641.7,34.2
2016-03-13T02:42:00Z,0000380,01000600,-000.07,0001.26,0000.18,0000.46,0000.11,0000.41,0000.04,0000.17,0000.13,24.5,00.0,0641.8,34.2
2016-03-13T02:43:00Z,0000380,01000600,-000.53,0001.12,0000.06,-000.18,0000.23,0000.44,0000.09,0000.08,0000.20,24.5,00.0,0641.8,34.2
2016-03-13T02:44:00Z,0000380,01000600,-000.69,0000.34,-000.04,0000.49,-000.05,0000.18,0000.01,-000.10,-000.38,24.5,00.0,0641.8,34.2
2016-03-13T02:45:00Z,0000380,01000600,-000.25,0000.63,0000.32,0001.08,-000.10,0000.23,0000.06,0000.19,0000.38,24.5,00.0,0641.8,34.3
2016-03-13T02:46:00Z,0000380,01000600,-000.47,0000.71,0000.12,0000.70,-000.05,0000.56,0000.24,0000.05,0000.10,24.5,00.0,0641.8,34.3
2016-03-13T02:47:00Z,0000380,01000600,0000.49,0000.57,0000.05,0000.51,0000.05,0000.38,-000.07,0000.08,0000.28,24.5,00.0,0641.9,34.3
2016-03-13T02:48:00Z,0000380,01000600,-001.05,0000.15,0000.26,0000.52,0000.50,0000.66,-000.12,-000.16,-000.52,24.5,00.0,0641.9,34.3
2016-03-13T02:49:00Z,0000380,01000600,-000.16,-000.02,-000.02,0000.93,0000.18,-000.16,0000.04,0000.12,-000.11,24.5,00.0,0641.9,34.3
2016-03-13T02:50:00Z,0000380,01000600,-000.78,0000.25,0000.79,-000.21,0000.10,0000.21,-000.02,-000.10,0000.47,24.5,00.0,0641.8,34.3
2016-03-13T02:51:00Z,0000380,01000600,-000.38,0000.32,0000.44,-000.13,0000.10,0000.33,0000.22,0000.07,-000.35,24.5,00.0,0641.9,34.3
2016-03-13T02:52:00Z,0000380,01000600,-000.31,0000.26,0000.49,0001.01,0000.55,0000.23,-000.08,-000.27,0000.00,24.5,00.0,0641.9,34.3
2016-03-13T02:53:00Z,0000380,01000600,0000.46,0000.98,0000.33,0000.46,-000.20,0000.05,-000.13,0000.10,0000.09,24.5,00.0,0641.9,34.3
2016-03-13T02:54:00Z,0000380,01000600,0001.17,0001.34,-000.02,-000.13,0000.07,0000.18,-000.13,-000.12,-000.01,24.5,00.0,0641.8,34.3
2016-03-13T02:55:00Z,0000380,01000600,0001.66,-000.06,0000.61,0000.64,-000.02,0000.08,0000.24,0000.05,0000.08,24.5,00.0,0641.8,34.3
2016-03-13T02:56:00Z,0000380,01000600,-000.11,0000.46,0000.39,-000.07,0000.41,0000.67,-000.11,0000.06,-000.16,24.6,00.0,0641.8,34.3
2016-03-13T02:57:00Z,0000380,41000600,,,,,,,,,,,,0641.8,34.3
2016-03-13T02:58:00Z,0000380,61000600,,,,,,,,,,24.5,00.0,0641.1,34.3
2016-03-13T02:59:00Z,0000380,21000600,,,,,,,,,,24.5,00.0,0641.1,34.3
2016-03-13T03:00:00Z,0000380,21000600,,,,,,,,,,24.5,00.0,0641.1,34.3
2016-03-13T03:01:00Z,0000380,21000600,,,,,,,,,,24.5,00.0,0641.1,34.3
2016-03-13T03:02:00Z,0000380,21000600,,,,,,,,,,24.5,00.0,0641.1,34.3
2016-03-13T03:03:00Z,0000380,61000600,,,,,,,,,,24.6,00.0,0641.1,34.3
2016-03-13T03:04:00Z,0000380,41000600,0001.01,0000.14,0000.33,0000.41,0000.03,0000.08,-000.07,0000.06,0000.13,24.7,00.0,0641.8,34.3
2016-03-13T03:05:00Z,0000380,01000600,0000.85,0000.33,0000.47,0000.00,0000.13,0000.64,0000.11,-000.09,-000.08,24.7,00.0,0641.9,34.3
2016-03-13T03:06:00Z,0000380,01000600,0000.30,0000.35,-000.25,-000.18,0000.18,0000.03,-000.13,0000.04,-000.04,24.7,00.0,0641.9,34.3
2016-03-13T03:07:00Z,0000380,01000600,0000.79,0000.74,-000.06,-000.26,0000.23,-000.13,0000.02,-000.20,-000.33,24.7,00.0,0641.9,34.3
2016-03-13T03:08:00Z,0000380,01000600,0000.56,-000.31,0000.50,-000.29,0000.11,-000.16,-000.02,0000.13,0000.57,24.7,00.0,0641.9,34.3
2016-03-13T03:09:00Z,0000380,01000600,0000.26,0000.77,-000.13,-000.26,0000.07,0000.36,0000.05,-000.08,-000.53,24.7,00.0,0641.8,34.3
2016-03-13T03:10:00Z,0000380,01000600,0000.57,0000.08,0000.02,-000.13,0000.15,-000.15,-000.01,-000.09,-000.02,24.8,00.0,0641.8,34.3
2016-03-13T03:11:00Z,0000380,01000600,0000.84,0000.43,0000.68,0000.23,-000.13,0000.10,-000.20,0000.16,0000.36,24.8,00.0,0641.9,34.3
2016-03-13T03:12:00Z,0000380,01000600,0001.29,0000.17,0000.09,-000.25,0000.41,-000.33,0000.22,-000.11,-000.13,24.8,00.0,0641.9,34.3